星链-31431 (STARLINK-31431 )

导读 | 星芒AI

STARLINK-31431 是 SpaceX 星链计划中的一颗低轨通信卫星,属于第 11 批星链卫星(Batch 11)。该卫星于 2023 年 9 月 28 日由猎鹰 9 号火箭从美国佛罗里达州肯尼迪航天中心发射升空。作为星链星座的一部分,STARLINK-31431 旨在提供全球范围内的高速互联网服务,特别是在偏远和网络覆盖不足的地区。卫星运行在约 550 公里的轨道高度,具备先进的推进和通信系统,支持 Starlink 网络的稳定性和扩展性。

基本信息
目录编号:
59002
目录名称:
STARLINK-31431
国际标识:
2024-036E
轨道中心:
EARTH
卫星名称:
星链-31431
卫星全名:
星链-31431 (STARLINK-31431 )
卫星状态:
在轨 (已飞行617 天)
发射日期:
2024-02-23 UTC
国别 :
美国 (US)
星等 :
--
轨道信息
数据来源 国际轨道数据
星历时间: 2025-10-31T15:46:19+0800
19小时前
查看轨道信息
半长轴: 6853.364km
偏心率: 0.0001287
轨道倾角: 53.159°
近地点辐角 94.701°
升交点赤经 319.242°
平近点角 265.414°
近地点: 474.346km
远地点: 476.112km
周期: 94.106分钟
每日圈数: 15.301962
详细信息
固有亮度:
5
最大亮度:
0.3
卫星平台:
Starlink v2.0 mini
覆盖范围:
全球
运营商:
太空探索技术公司
运营商所在国:
美国
制造商(研发单位):
太空探索技术公司
制造商所在国:
美国
使用方式:
暂无
卫星简介
星链(Starlink)计划是由太空探索技术公司(SpaceX)提出的一个巨型低轨卫星互联网星座项目,计划在2019年至2024年间在太空搭建由约1.2万颗卫星组成的“星链”网络,其中1584颗将部署在地球上空550千米处的近地轨道,并从2020年开始工作。该卫星仍在工作。
2D轨道图
3D轨道图
轨道高度分析图
轨道倾角分析图
轨道综合分析图
查看轨道综合分析图